Overview Statistics Trail Chart Weather Telemetry Raw packets
 

This is the latest recevied weather packets stored in our database for station/object W5DNT. If no packets are shown the sender has not sent any weather packets the latest 10 day(s).

<< 33 34 35 36 37 38 39 >>
Time Temp. Humidity Pressure Rain* Wind** Luminosity Snow
1787859934 38.89° C 37% 1012 hPa 0 mm - - -
1787859039 38.89° C 38% 1012.2 hPa 0 mm - - -
1787858128 38.89° C 38% 1012.4 hPa 0 mm - - -
1787857226 38.33° C 40% 1012.5 hPa 0 mm - - -
1787856325 38.33° C 40% 1012.6 hPa 0 mm - - -
1787855423 38.33° C 41% 1012.7 hPa 0 mm - - -
1787854519 38.33° C 43% 1012.8 hPa 0 mm - - -
1787853633 37.78° C 44% 1013.1 hPa 0 mm - - -
1787852710 37.78° C 45% 1013.3 hPa 0 mm - - -
1787851806 37.22° C 46% 1013.5 hPa 0 mm - - -
1787850902 37.22° C 47% 1013.7 hPa 0 mm - - -
1787850057 36.67° C 48% 1013.9 hPa 0 mm - - -
1787849158 36.11° C 50% 1014.1 hPa 0 mm - - -
1787848252 35.56° C 51% 1014.1 hPa 0 mm - - -
1787847344 35° C 53% 1014.1 hPa 0 mm - - -
1787846441 34.44° C 56% 1014.2 hPa 0 mm - - -
1787845536 33.89° C 58% 1014.1 hPa 0 mm - - -
1787844634 33.33° C 60% 1014 hPa 0 mm - - -
1787843729 32.78° C 62% 1014.1 hPa 0 mm - - -
1787842827 31.67° C 62% 1014.1 hPa 0 mm - - -
1787841921 30.56° C 63% 1014 hPa 0 mm - - -
1787841017 29.44° C 65% 1014.2 hPa 0 mm - - -
1787840113 28.89° C 66% 1014.3 hPa 0 mm - - -
1787839213 27.78° C 68% 1014.3 hPa 0 mm - - -
1787838308 27.22° C 70% 1014.1 hPa 0 mm - - -

* Rain latest hour (hover to see other rain measurements)
** Current wind speed in m/s (hover to see current wind gust speed)